Theta_e
352 350 352 345 343 341 339 339 343 348 349 349 349 349 349 349 346 347 347 345 345 348 351 350 347 347 346 346 344 344 347 351 350 350 349 348 348 348 348 346 343 344 346
351 349 347 345 343 342 341 340 339 340 345 348 348 348 348 346 344 346 346 351 351 351 353 349 350 348 347 344 344 345 350 350 348 348 347 349 349 348 347 345 342 345 342
351 349 347 346 346 345 343 342 340 339 340 341 343 344 344 344 344 349 348 352 353 353 353 352 349 351 347 345 350 349 351 346 347 348 349 347 346 348 346 346 345 346 344
349 349 347 347 347 345 343 343 340 339 340 340 341 342 345 350 351 352 353 353 353 353 352 353 352 353 351 351 350 351 350 348 350 350 345 346 348 349 347 346 346 344 345
352 350 348 347 346 345 345 343 342 342 343 345 346 350 350 351 351 352 353 353 354 351 350 351 346 352 349 348 351 350 349 350 350 345 345 346 346 348 348 348 347 345 343
352 351 348 350 351 346 345 345 346 345 343 341 345 352 352 351 352 353 353 351 351 353 347 344 345 350 350 348 349 347 346 349 346 346 346 346 344 346 348 347 347 345 343
351 351 349 349 352 349 346 345 346 345 344 344 344 346 351 350 351 351 352 350 351 350 346 345 343 344 351 343 349 347 346 349 346 347 345 345 345 344 348 348 346 345 340
349 350 350 350 351 350 350 348 345 345 345 346 346 346 345 349 349 350 347 348 348 348 347 346 345 347 346 343 345 342 346 347 344 347 347 342 343 344 348 347 341 345 345
349 349 351 351 351 351 351 350 347 346 346 346 346 346 347 351 350 344 347 346 348 346 346 346 347 348 344 344 342 341 344 347 347 347 346 341 341 344 349 347 339 345 344
349 350 350 351 350 351 351 350 350 347 347 348 348 346 347 352 349 343 349 346 346 344 346 347 346 344 347 345 342 341 345 345 347 346 344 341 339 345 348 346 346 342 341
353 351 350 350 349 350 349 350 350 349 350 353 352 351 352 351 350 349 346 345 345 346 344 345 345 345 342 345 342 342 343 346 348 347 345 344 340 346 348 346 345 336 342
353 351 350 350 351 351 351 350 351 351 353 352 352 352 350 349 346 349 344 343 350 347 347 345 345 345 345 343 344 342 343 342 347 347 346 346 343 340 349 346 345 338 336
353 353 351 350 350 351 351 352 353 352 353 353 353 352 351 350 346 345 346 345 347 351 349 348 344 345 345 345 343 342 341 341 344 345 346 346 344 339 347 345 344 343 342
354 351 347 349 350 350 350 351 349 347 347 349 346 346 349 348 344 345 346 345 345 347 347 347 344 345 344 346 346 344 342 341 340 341 346 345 346 340 344 346 344 342 343
354 352 348 346 348 349 349 349 350 345 343 343 344 345 344 345 341 343 344 348 346 345 347 345 343 344 344 345 346 345 344 341 340 339 344 345 347 343 340 346 345 345 345
355 354 352 349 348 349 348 346 345 343 342 342 343 344 344 342 343 342 345 344 346 344 345 344 345 345 346 345 345 345 345 344 340 338 342 344 342 344 341 341 346 346 346
356 355 354 352 351 351 351 349 346 344 344 344 344 343 343 343 342 342 343 345 344 342 342 343 344 345 345 347 346 346 346 345 345 340 339 344 344 344 343 341 342 345 345
356 356 354 353 353 354 354 353 352 351 348 347 346 346 346 346 344 342 343 345 343 341 341 341 343 343 343 345 346 346 347 347 346 345 340 342 344 343 343 343 341 341 344
354 355 354 354 354 353 353 352 350 349 348 347 345 343 341 346 347 343 342 341 342 343 341 342 343 343 341 342 346 346 346 346 346 346 342 343 344 345 344 343 342 342 341
351 349 349 349 349 349 350 349 349 348 346 345 341 336 342 346 345 344 338 341 344 340 342 343 343 343 341 341 343 345 346 346 346 346 346 344 345 345 343 344 343 344 341
341 336 340 345 345 345 347 348 349 349 348 347 346 345 344 344 344 342 342 342 343 343 343 343 342 342 342 342 344 343 344 345 345 345 345 345 345 344 344 345 344 345 342
338 341 340 337 337 342 340 347 349 348 347 346 346 345 343 341 341 341 341 341 340 341 341 340 342 343 342 342 342 340 343 344 346 346 346 346 346 346 346 346 346 346 345
339 336 336 335 338 336 340 347 349 347 346 344 343 342 340 339 339 340 340 341 340 340 340 339 341 343 342 341 342 339 341 345 340 344 345 346 346 347 346 346 346 346 345
338 336 334 335 339 335 339 347 346 345 343 341 340 338 337 337 338 338 339 340 340 339 340 340 339 342 342 341 341 340 339 338 343 346 343 343 344 346 346 346 346 346 345
343 344 342 338 333 336 344 347 345 342 339 337 337 338 338 338 338 338 338 339 339 338 339 339 340 339 342 341 341 340 340 341 339 337 341 340 344 346 346 346 346 346 346
338 336 332 335 337 343 348 345 341 338 337 338 338 339 338 338 339 339 339 338 338 338 339 339 339 339 341 342 341 340 340 340 340 339 340 337 338 336 338 340 341 342 345
Wind_Speed
24 24 25 27 26 26 25 25 24 23 23 22 21 21 20 20 19 18 17 17 15 13 11 8 7 11 13 11 11 10 16 17 17 17 16 16 16 17 18 18 17 16 16
33 29 26 26 25 24 24 24 23 22 22 22 21 21 21 19 18 17 16 15 15 12 10 8 8 8 12 15 14 15 17 17 18 17 16 16 16 16 17 17 16 16 15
32 31 28 27 25 22 22 21 22 22 21 20 20 20 19 18 18 17 16 14 13 12 10 8 8 8 11 15 15 17 16 17 18 17 17 17 15 15 15 16 16 16 15
32 31 30 27 25 23 23 21 21 21 21 20 19 19 18 18 16 14 14 14 14 12 11 9 9 10 11 14 16 17 17 17 17 16 17 16 14 15 15 16 15 14 14
30 29 28 26 25 23 22 21 20 19 18 18 17 17 17 15 14 13 13 13 13 14 11 9 9 11 12 14 17 18 18 17 15 16 17 13 15 14 15 15 14 14 14
28 27 25 24 22 22 22 20 20 19 18 17 16 16 15 13 13 11 11 11 10 10 11 10 9 10 12 14 17 18 18 15 15 14 13 15 15 14 15 15 14 13 14
27 25 24 23 21 20 20 20 19 19 18 18 17 16 16 13 12 10 10 9 9 8 8 9 9 10 10 14 16 17 17 16 18 13 13 14 14 14 15 15 14 14 13
29 27 26 25 22 20 20 20 19 19 18 17 16 15 15 14 11 12 10 9 7 8 8 8 9 11 11 13 16 15 18 16 17 11 10 13 14 14 15 15 14 13 13
25 24 24 24 21 19 18 20 20 20 19 18 16 15 15 14 12 11 9 9 8 7 7 8 9 10 11 11 14 15 17 15 13 11 14 13 15 14 15 15 14 14 14
21 22 25 25 22 19 19 19 20 20 18 17 16 15 15 14 13 12 10 9 8 8 8 9 9 8 11 11 12 15 16 11 10 12 15 12 14 16 15 15 14 15 14
19 22 22 24 23 20 19 20 20 21 20 18 16 16 14 14 13 12 12 10 8 8 7 7 10 11 10 11 12 15 16 14 11 12 15 14 14 16 16 15 14 15 15
21 22 23 23 22 20 19 20 20 21 21 21 20 19 17 16 14 13 12 10 8 7 8 8 9 10 11 12 13 14 17 16 15 12 16 16 15 16 16 15 15 14 15
24 20 24 25 23 21 20 19 20 21 21 22 21 20 18 17 15 15 13 12 11 10 9 8 9 10 11 14 14 15 17 18 18 14 14 19 17 16 17 16 16 16 15
21 21 20 22 23 22 20 19 18 20 20 21 20 20 22 20 18 17 15 14 12 12 10 10 10 10 11 13 14 15 17 20 21 18 14 19 20 17 17 18 18 17 16
21 21 19 20 21 22 22 21 21 21 20 19 20 20 19 17 18 17 16 16 14 12 11 11 10 10 11 12 14 14 16 19 22 21 17 19 21 19 17 17 18 18 17
26 24 20 20 20 20 21 21 22 20 19 19 18 18 17 18 18 19 18 17 16 13 11 11 10 10 12 13 13 14 14 17 20 22 21 19 20 20 19 19 19 18 18
26 23 23 21 21 21 20 18 19 19 19 19 18 18 19 19 18 19 18 20 19 15 12 12 13 12 13 14 15 15 16 18 19 23 24 21 20 22 21 20 21 19 18
25 23 22 21 22 21 20 18 18 19 19 19 19 19 20 20 21 21 20 21 20 19 16 15 15 14 14 15 15 15 16 18 19 21 25 24 21 21 23 22 22 19 21
18 18 16 17 19 18 18 17 18 17 19 20 21 22 20 21 23 22 24 26 25 24 21 18 17 17 17 16 14 12 16 16 18 20 23 25 23 22 23 24 22 19 22
14 11 10 3 3 10 14 13 15 15 18 19 20 22 22 23 22 22 23 24 23 23 23 21 20 18 18 17 15 13 13 16 16 18 24 24 25 23 24 25 24 22 24
16 25 23 8 6 7 8 14 17 20 20 20 21 22 22 23 23 24 24 24 23 25 25 22 21 19 19 16 12 15 12 14 15 16 18 20 23 19 21 24 26 22 25
8 24 35 16 13 17 15 15 15 12 14 17 17 20 21 23 25 24 25 26 25 27 24 21 21 19 17 15 7 3 1 3 12 15 18 22 22 19 20 22 24 24 25
13 15 26 23 13 23 18 14 16 11 9 13 14 15 13 12 16 21 23 21 25 26 25 21 21 22 18 15 17 4 2 4 1 9 15 16 17 18 19 21 22 22 23
13 17 26 28 23 20 14 7 8 7 10 11 15 17 18 15 14 15 18 21 20 22 24 22 20 22 21 19 14 17 5 3 3 1 7 14 17 18 19 21 22 24 24
10 13 17 19 23 12 11 3 5 7 11 16 16 16 15 14 14 16 17 17 19 21 22 22 22 22 23 22 17 8 16 6 3 2 2 3 10 16 19 19 22 24 25
13 16 11 12 9 8 3 4 4 6 9 14 14 14 15 14 10 13 18 19 18 17 19 21 21 22 23 25 25 22 12 9 7 4 1 2 4 5 13 15 20 22 26
Wind_Direction
160 157 159 156 155 154 150 149 149 149 148 151 151 154 152 150 152 156 154 148 146 146 142 147 147 144 148 161 147 144 139 132 129 127 126 126 124 122 121 120 119 117 117
156 160 165 161 159 156 152 148 149 150 150 152 152 152 154 157 155 157 155 149 148 147 145 146 149 148 142 145 146 140 137 138 134 132 133 130 127 129 125 124 122 121 117
157 160 167 165 164 160 155 152 149 147 149 151 152 156 157 158 155 156 156 156 153 147 149 150 149 153 150 149 145 143 142 138 137 140 140 136 133 130 129 130 128 125 121
159 162 167 169 166 165 161 158 153 151 149 150 151 154 154 153 158 157 160 162 158 154 154 149 147 152 156 152 148 146 145 146 143 142 143 140 135 139 136 135 133 131 127
162 165 164 169 167 166 165 162 157 155 151 151 148 149 150 152 156 158 154 158 160 158 160 149 144 146 152 152 151 150 150 151 148 147 148 146 140 142 143 138 141 137 134
166 168 166 166 168 170 169 165 162 161 158 155 155 157 158 158 159 159 159 161 163 164 163 153 149 150 151 153 153 151 152 150 157 153 152 151 147 151 148 147 145 144 142
171 172 171 171 173 173 173 174 171 170 167 163 163 162 165 166 168 164 167 168 168 174 167 159 158 156 152 155 156 158 153 157 157 149 152 157 157 154 154 154 152 151 151
176 177 176 179 179 179 180 185 181 178 175 172 171 170 169 172 175 176 175 180 172 180 183 169 166 164 162 163 163 168 162 162 167 174 176 169 165 162 160 159 159 156 155
180 180 185 185 188 189 188 191 192 187 185 180 178 176 175 177 182 184 185 187 182 185 176 177 171 170 170 171 171 174 175 174 189 194 182 174 171 168 169 171 165 163 167
180 187 190 191 192 194 194 196 196 197 193 188 185 185 184 183 186 188 193 195 198 192 182 179 171 173 176 178 179 178 180 182 190 178 177 180 179 174 179 178 173 169 172
184 191 195 194 194 195 196 195 198 198 196 194 194 193 193 192 194 192 201 199 205 201 195 186 177 176 182 188 185 190 190 195 195 192 192 194 189 186 188 188 186 179 180
182 188 197 196 198 197 195 199 200 199 198 200 200 197 198 201 201 203 205 207 213 215 211 196 188 186 185 196 199 194 203 204 203 204 203 204 199 196 195 200 199 190 183
185 188 194 200 201 202 198 197 205 201 205 207 206 203 205 208 207 206 206 210 211 221 215 213 200 200 197 200 203 203 209 213 213 216 223 209 206 201 202 203 209 198 194
191 200 199 201 204 208 209 208 213 212 216 215 219 215 211 208 211 210 216 214 217 217 221 224 218 208 213 207 208 210 213 215 217 222 226 210 210 209 206 205 213 206 203
196 203 204 202 207 214 215 215 215 217 220 228 227 224 222 222 219 220 220 222 218 224 232 231 229 224 220 219 210 217 217 215 217 221 224 214 213 214 209 211 213 211 211
198 201 198 200 206 213 219 218 220 222 224 226 231 235 237 232 228 228 231 228 225 227 234 234 235 238 234 231 227 224 223 223 222 222 223 222 214 216 216 216 215 216 216
201 198 197 200 206 210 221 226 229 232 232 233 234 238 241 243 242 241 235 230 226 225 232 241 239 241 242 235 237 231 227 228 229 225 224 226 216 221 223 224 223 222 224
200 199 210 208 212 210 219 229 233 238 242 244 245 245 247 252 248 239 236 231 228 229 238 235 239 241 246 244 239 241 230 225 232 229 228 227 225 227 226 227 225 226 229
202 201 208 223 227 228 222 229 239 244 248 250 253 253 249 249 250 237 241 243 243 240 237 235 235 240 248 251 247 238 236 230 232 228 226 226 230 232 229 231 231 235 232
104 54 98 81 293 261 260 248 247 250 253 259 255 253 251 249 246 250 246 241 237 234 234 236 237 237 245 250 249 243 244 232 231 230 229 229 235 240 241 234 233 250 239
35 285 322 340 336 338 296 268 249 247 255 259 262 262 263 259 254 254 248 250 237 229 233 237 240 236 239 240 244 242 238 229 225 229 225 229 239 246 237 235 239 248 238
132 241 249 277 306 290 314 286 271 268 278 275 271 269 260 251 248 250 249 249 243 233 229 233 233 231 235 229 225 144 226 234 231 227 234 234 241 243 242 242 246 242 244
225 245 232 235 272 265 290 293 275 283 293 295 303 300 305 291 273 254 244 246 241 237 227 230 227 227 232 227 222 181 133 224 229 223 230 232 239 238 244 244 246 245 248
214 220 225 230 245 244 264 279 274 310 310 316 314 311 298 286 272 259 259 245 231 230 236 232 231 229 228 233 232 233 242 215 189 222 228 230 233 237 243 248 251 251 250
203 208 227 242 249 239 277 266 283 320 326 320 320 317 313 302 284 263 249 246 238 229 229 233 232 230 230 231 223 213 221 227 217 142 237 256 241 241 247 254 258 258 256
195 209 225 212 210 308 247 239 300 321 338 333 339 338 329 331 314 266 238 236 235 231 229 230 230 232 232 235 236 233 225 207 212 196 187 221 244 269 255 259 261 259 256